Theta_e
338 338 340 342 340 338 338 343 349 350 345 344 344 344 344 345 346 346 346 345 345 346 347 348 347 347 349 352 352 352 352 351 351 349 347 346 345 344 346 349 349 350
338 340 344 348 349 348 346 345 350 353 346 342 343 344 343 344 344 344 343 342 344 346 347 346 346 345 347 350 352 353 354 354 353 351 349 348 348 348 348 349 349 349
338 339 344 348 350 350 347 344 349 354 350 343 342 342 342 342 343 343 344 344 346 347 346 346 346 346 346 347 348 352 354 353 351 351 352 352 353 354 353 352 351 350
343 343 347 348 346 344 344 344 346 350 349 344 343 342 342 342 342 343 345 344 345 347 348 348 347 346 346 346 346 350 352 349 350 354 356 356 356 356 355 354 354 352
347 346 346 344 342 342 345 347 346 346 346 344 344 344 344 344 343 344 344 344 345 346 347 348 347 346 347 348 348 349 350 348 349 351 352 349 350 352 350 348 348 350
344 344 343 342 343 344 346 346 346 345 344 344 343 343 343 344 344 344 345 346 347 348 349 349 349 348 349 351 352 351 351 351 350 349 348 345 345 347 346 344 344 345
343 343 345 344 344 345 345 345 345 345 343 344 344 343 344 345 348 349 351 351 351 351 351 351 353 353 351 352 354 354 353 352 352 352 351 348 347 348 347 347 349 349
343 344 345 345 346 347 346 347 349 346 343 344 345 343 343 344 348 350 353 354 352 352 353 353 355 356 354 354 356 357 356 354 354 354 352 351 351 349 349 350 351 351
340 341 340 341 342 344 346 350 350 346 345 346 345 346 346 345 347 349 352 353 353 356 355 354 355 357 356 357 358 358 356 353 353 354 353 354 353 351 351 351 352 351
338 338 339 339 339 343 350 355 353 347 347 347 348 349 351 350 351 355 356 355 356 356 354 351 353 355 355 356 356 356 355 353 352 354 354 354 353 352 351 351 351 351
341 339 339 341 341 347 356 361 360 357 355 354 353 356 357 358 359 359 357 356 356 356 353 351 354 355 354 354 354 354 353 352 352 352 352 351 350 349 350 349 349 349
350 349 347 349 349 352 359 364 366 363 361 359 358 359 359 359 358 357 356 355 355 355 354 353 354 354 353 351 350 350 349 349 349 349 349 349 349 348 349 349 348 347
358 359 357 356 355 357 362 365 364 361 358 357 357 356 355 354 353 353 353 351 351 351 350 349 349 350 349 348 346 345 344 345 346 347 346 345 345 345 345 345 345 342
359 361 359 358 356 357 360 361 360 356 355 355 355 354 354 353 353 353 353 351 348 346 344 343 342 342 342 341 340 340 340 340 341 341 340 339 337 336 335 335 335 333
357 358 357 356 355 355 356 356 355 354 353 353 353 352 351 351 351 351 351 348 344 340 339 340 339 338 338 338 337 337 337 337 336 336 336 334 333 333 332 331 330 329
354 354 354 353 353 353 353 353 352 352 351 350 350 349 347 345 343 342 340 337 335 335 336 338 337 336 336 336 336 335 335 334 334 333 333 332 332 332 332 331 331 330
351 352 352 352 352 352 351 351 351 350 348 347 345 342 338 334 332 330 330 331 333 334 335 336 336 335 335 335 334 334 334 333 333 333 333 333 332 331 330 330 330 329
351 350 351 351 351 351 349 348 347 344 341 338 334 330 327 326 328 330 332 334 334 334 335 336 335 335 335 335 335 334 334 333 332 331 330 328 327 326 326 327 328 328
351 352 351 349 348 346 344 342 338 334 329 326 324 326 328 329 332 335 336 336 335 335 335 335 335 334 334 334 333 332 330 329 327 325 324 323 322 322 323 325 326 327
350 349 347 344 341 338 335 331 326 324 323 322 324 329 333 333 334 335 336 335 335 334 334 333 333 332 332 330 328 326 325 324 323 322 322 322 322 322 323 324 325 326
345 342 339 336 332 328 326 324 323 324 325 326 328 332 334 334 334 333 333 333 332 331 331 330 330 328 327 326 324 323 323 323 323 323 323 323 323 323 323 324 325 325
336 333 331 327 324 323 322 323 326 328 328 330 333 334 334 332 332 332 332 330 330 329 328 327 327 325 324 324 323 323 323 324 324 323 324 323 323 323 323 323 324 324
328 326 324 323 322 323 325 326 329 330 330 332 333 333 332 331 331 331 330 329 328 327 325 325 324 324 323 323 323 323 323 323 323 323 323 324 323 323 324 323 324 324
324 322 322 322 323 326 329 331 332 331 332 332 332 332 331 330 329 328 327 327 326 324 324 324 324 323 323 322 322 323 324 324 324 324 324 324 324 324 324 324 324 324
321 322 323 324 326 329 331 332 331 331 331 331 330 330 329 328 327 326 326 325 324 323 323 324 323 323 323 322 323 324 324 324 323 324 324 324 325 324 324 324 324 324
321 322 326 328 329 331 331 331 331 330 330 330 329 328 327 326 326 326 325 324 324 323 323 323 323 323 322 322 323 324 324 323 322 323 323 324 325 325 325 325 324 324
Wind_Speed
12 12 13 13 14 14 15 16 16 17 16 17 18 18 18 18 15 15 17 17 18 17 15 18 21 21 20 21 21 22 24 26 26 25 25 24 23 22 19 18 20 23
13 13 13 14 14 14 14 15 15 16 17 17 18 17 17 17 17 21 24 20 16 16 18 20 20 18 18 19 22 24 25 25 24 23 22 23 23 22 22 22 24 27
14 14 13 13 13 13 13 16 16 16 16 16 17 18 18 18 20 23 23 20 19 20 20 21 21 20 20 22 23 26 27 26 25 23 22 22 22 22 24 25 28 30
15 15 14 13 14 14 14 15 17 17 17 16 17 18 18 18 19 20 21 22 23 22 22 24 25 24 24 23 23 24 25 24 24 23 21 21 22 23 25 26 28 30
16 16 16 15 14 15 15 16 17 17 18 17 17 17 18 18 19 22 24 25 24 23 25 26 27 27 25 24 25 26 25 24 25 27 26 25 25 25 25 26 28 30
17 17 17 17 17 17 17 17 17 16 17 18 17 16 16 17 20 24 25 24 23 23 25 27 27 27 26 24 23 23 24 26 28 30 29 26 27 28 28 29 30 32
16 15 14 14 16 18 17 16 15 15 15 16 16 16 17 17 16 17 18 20 23 24 25 28 27 25 26 25 21 20 23 25 26 26 25 25 26 28 29 30 32 34
19 18 16 14 13 14 14 15 15 15 16 17 17 19 22 22 19 17 18 22 24 25 24 25 24 22 23 23 22 23 25 26 26 25 24 26 28 29 30 31 32 33
22 21 22 21 19 17 15 15 15 15 17 20 20 20 23 27 27 25 25 26 25 23 22 21 20 20 21 20 22 25 27 27 28 26 24 25 27 27 28 28 28 30
21 22 22 22 22 19 13 12 15 16 19 22 22 21 23 26 26 24 24 24 21 19 18 17 17 19 20 20 22 25 26 25 25 24 24 25 25 26 27 28 29 30
19 21 21 21 20 15 9 9 13 17 20 21 21 20 19 19 18 16 14 13 12 13 14 13 14 17 18 19 21 23 23 23 24 23 23 24 24 25 26 27 28 29
15 16 17 17 16 12 9 11 14 15 16 17 18 18 16 15 15 14 11 10 10 11 12 12 13 15 16 18 20 20 21 21 22 23 23 23 23 22 23 23 23 24
13 14 15 14 13 12 12 14 14 13 12 12 13 13 11 11 11 10 10 11 13 14 14 14 16 18 19 21 21 21 20 19 19 21 22 22 23 24 25 25 26 27
15 17 16 14 13 13 13 14 12 11 9 8 8 6 5 7 7 6 8 11 14 15 15 14 16 18 20 21 20 20 20 20 20 21 23 25 27 28 29 28 28 28
17 17 14 12 12 10 9 10 8 6 5 4 5 5 6 8 9 10 12 14 14 14 12 11 14 16 18 18 18 19 20 22 23 25 27 29 30 29 28 27 26 24
14 13 12 10 9 6 4 3 2 2 3 4 5 6 7 7 8 10 11 13 13 11 10 12 14 15 17 18 19 21 23 25 26 28 29 30 30 29 28 28 27 26
11 10 8 6 3 3 2 1 2 4 4 4 5 7 9 10 11 12 12 12 11 10 10 13 14 16 18 20 22 23 25 27 28 29 30 31 31 31 29 28 27 27
6 4 4 3 4 5 4 3 3 3 5 7 9 10 11 11 11 11 11 10 10 8 10 13 15 17 20 21 23 25 26 28 29 30 30 30 30 29 27 24 23 24
6 6 6 5 3 2 1 3 5 7 10 11 11 10 10 9 8 8 9 10 10 8 10 14 15 18 21 23 24 26 28 28 28 28 27 26 26 24 22 20 19 21
7 5 4 2 1 3 5 7 9 10 11 11 9 7 7 7 7 6 8 9 10 9 10 14 16 19 22 24 26 27 27 26 25 24 23 23 22 22 19 16 17 18
5 2 0 1 4 6 8 9 9 9 10 9 7 5 6 8 10 9 9 11 11 11 12 15 18 20 22 25 26 25 25 24 23 23 23 23 22 21 18 16 15 15
2 1 3 4 6 7 8 8 6 7 8 6 6 6 7 9 10 7 8 11 12 13 14 15 17 19 22 24 25 25 25 25 25 24 23 23 22 20 17 16 15 14
2 3 4 5 6 6 6 6 4 5 5 8 9 8 6 5 5 5 7 11 15 15 15 14 15 18 20 23 24 25 25 25 24 23 21 20 20 19 18 17 16 14
3 4 4 4 4 3 3 3 4 5 7 8 7 5 5 4 6 8 9 12 15 15 14 14 15 17 19 22 23 23 23 22 20 19 19 20 20 20 20 19 18 15
3 3 3 3 2 0 2 4 6 7 6 4 3 3 6 8 8 10 12 14 17 16 14 14 15 15 18 21 21 21 20 18 18 19 20 21 21 22 22 22 21 18
4 4 3 1 1 3 5 7 6 5 5 5 5 7 10 12 11 12 14 17 18 17 15 15 15 15 18 20 19 18 18 18 20 21 21 21 22 23 23 24 23 19
Wind_Direction
234 241 246 250 256 260 261 255 246 248 256 262 267 272 276 278 273 264 269 272 260 254 258 260 266 274 273 272 271 269 268 268 268 269 267 264 259 256 257 259 261 260
230 235 237 240 250 256 268 275 261 248 251 256 260 262 266 271 272 270 274 275 262 253 258 264 270 275 274 270 267 266 267 268 271 275 275 273 268 260 254 251 253 254
228 233 236 236 245 252 264 279 276 264 259 262 264 261 257 260 266 265 263 260 256 255 254 252 253 259 262 263 265 264 262 267 274 275 274 275 270 265 264 260 258 259
231 239 243 240 250 262 265 267 268 266 268 275 278 271 264 262 261 260 261 262 262 259 257 257 260 265 265 262 262 261 263 272 277 271 269 273 270 267 270 268 264 264
230 237 247 252 256 260 259 256 258 259 262 270 273 270 271 266 255 257 265 270 270 265 264 268 272 273 270 261 258 263 268 270 267 264 266 271 270 267 271 273 271 268
232 234 240 251 255 252 253 255 255 257 261 267 266 262 266 265 258 262 269 268 266 265 268 273 275 274 269 261 261 268 268 264 263 264 267 269 268 267 272 278 277 271
232 233 229 242 250 247 256 264 256 252 257 265 265 258 261 266 267 271 270 262 262 266 272 278 280 276 268 261 263 266 264 265 266 265 267 270 269 269 273 276 274 270
228 232 232 244 252 248 258 266 259 251 249 254 259 258 261 265 269 275 271 266 270 275 278 281 280 276 269 265 268 269 266 267 268 268 271 271 270 271 273 272 270 269
235 237 238 244 253 257 257 256 259 263 263 264 265 263 260 260 264 271 271 271 276 279 279 280 278 275 271 269 271 271 270 272 274 276 277 272 271 274 273 269 266 267
239 241 242 245 254 260 256 249 253 258 260 262 262 259 257 256 260 265 268 272 276 276 275 280 281 276 270 267 268 271 273 277 279 281 279 275 276 277 273 269 267 268
241 243 247 250 254 254 246 244 242 237 242 248 250 252 252 250 252 258 268 278 282 280 277 277 281 279 274 270 272 277 282 285 286 286 284 282 280 277 275 275 275 276
239 246 248 250 253 244 226 230 233 232 241 247 248 252 254 252 254 261 271 268 262 267 269 268 274 279 277 277 277 280 285 289 291 291 288 285 281 277 277 279 281 284
224 234 238 240 243 234 223 229 237 244 253 257 257 261 265 265 265 270 277 270 264 268 275 278 279 275 274 278 281 283 285 286 286 285 284 283 280 278 278 277 278 281
213 224 231 236 240 236 232 236 244 252 256 259 268 271 256 254 256 250 257 271 282 289 294 294 287 281 281 284 286 288 288 285 282 280 283 287 288 289 289 288 286 286
217 229 236 240 241 240 240 242 249 264 270 263 263 255 243 250 257 253 257 273 292 305 310 302 293 292 294 294 294 293 291 289 288 288 290 293 296 299 300 300 299 297
220 229 233 236 235 228 233 242 222 220 244 250 250 255 267 279 282 281 285 293 305 317 318 305 299 301 300 299 299 298 296 295 294 295 296 297 300 302 302 302 301 299
213 215 217 224 200 130 125 236 215 207 232 263 285 295 305 313 310 309 316 318 319 328 321 307 303 303 301 300 299 299 298 298 298 298 298 299 301 302 303 303 301 299
193 169 147 145 139 142 165 215 254 281 302 311 316 316 314 316 321 327 329 320 317 323 313 303 304 302 298 297 298 298 299 300 301 303 303 304 305 305 305 305 303 301
122 125 137 144 154 177 221 299 313 316 314 312 315 319 321 324 332 336 326 313 313 317 306 302 304 301 297 298 299 300 302 305 308 309 309 310 311 311 308 306 305 302
128 147 158 153 298 320 319 315 315 313 310 312 319 327 332 335 334 326 322 319 319 319 311 306 305 300 299 301 304 307 311 315 316 316 317 320 321 320 318 312 307 305
143 150 132 316 308 311 310 311 315 312 309 318 332 334 344 355 352 341 333 325 316 313 314 311 309 306 306 309 314 320 324 324 325 326 327 329 329 328 326 320 314 311
164 252 296 303 305 307 307 309 312 307 313 346 9 3 14 22 14 359 340 326 316 316 319 318 317 316 316 321 327 332 333 334 336 338 337 337 338 336 331 325 318 310
230 277 294 300 300 300 306 310 310 322 360 42 37 14 17 30 7 339 330 325 321 326 333 336 337 331 327 332 337 338 339 341 343 344 346 350 353 352 348 341 332 321
257 279 281 277 280 291 321 338 7 26 42 61 52 2 325 335 349 344 341 335 333 341 350 351 347 337 332 340 345 343 344 348 349 355 4 9 8 3 357 351 343 338
243 246 246 254 267 325 47 44 48 49 46 51 54 4 344 355 7 2 354 351 350 355 358 351 347 342 340 349 353 349 352 1 8 13 16 14 8 2 358 354 349 343
214 208 207 177 78 73 73 68 64 65 56 34 34 35 21 14 15 8 1 1 1 2 1 355 352 350 352 357 359 359 7 19 22 17 14 12 7 2 1 360 353 345